Weather History for Pompano Beach, FL

Change the Weather History Date:

Friday, January 25, 2013

  Actual Average Record
Temperature  
Mean Temperature 66 °F -  
Max Temperature 75 °F 78 °F 84 °F (1972)
Min Temperature 57 °F 59 °F 42 °F (1960)
Cooling Degree Days 1    
Growing Degree Days 16 (Base 50)    
Moisture  
Dew Point 54 °F    
Average Humidity 66    
Maximum Humidity 84    
Minimum Humidity 48    
Precipitation  
Precipitation 0.00 in - - ()
Sea Level Pressure  
Sea Level Pressure 30.24 in    
Wind  
Wind Speed 6 mph (NNE)    
Max Wind Speed 9 mph    
Max Gust Speed -    
Visibility 10 miles    
Events      
Averages and records for this station are not official NWS values.
T = Trace of Precipitation, MM = Missing Value Source: NWS Daily Summary

Daily Weather History Graph

Daily Weather History Graph

Search for Another Location

Airport:

Trip Planner

Search our weather history database for the weather conditions in past years. The results will help you decide how hot, cold, wet, or windy it might be!

Date:

Astronomy

Jan. 25, 2013 Rise Set
Actual Time 7:07 AM EST 5:58 PM EST
Civil Twilight 6:43 AM EST 6:22 PM EST
Nautical Twilight 6:15 AM EST 6:50 PM EST
Astronomical Twilight 5:47 AM EST 7:18 PM EST
Moon 4:53 PM EST (1/25) 5:45 AM EST (1/25)
Length of Visible Light 11h 39m
Length of Day
10h 50m
Waxing Gibbous, 98% of the Moon is Illuminated
Jan 25
Waxing Gibbous
Jan 26
Full
Feb 3
Last Quarter
Feb 10
New
Feb 17
First Quarter

Hourly Weather History & Observations

Time (EST) Temp. Dew Point Humidity Pressure Visibility Wind Dir Wind Speed Gust Speed Precip Events Conditions
12:53 AM 59.0 °F 53.1 °F 81% 30.26 in 10.0 mi NNW 5.8 mph - N/A   Clear
1:53 AM 60.1 °F 54.0 °F 80% 30.25 in 10.0 mi NNW 4.6 mph - N/A   Mostly Cloudy
2:53 AM 60.1 °F 53.1 °F 78% 30.24 in 10.0 mi NNW 6.9 mph - N/A   Partly Cloudy
3:53 AM 59.0 °F 52.0 °F 78% 30.24 in 10.0 mi NNW 5.8 mph - N/A   Scattered Clouds
4:53 AM 57.9 °F 51.1 °F 78% 30.24 in 10.0 mi NNW 5.8 mph - N/A   Partly Cloudy
5:53 AM 57.9 °F 50.0 °F 75% 30.25 in 10.0 mi NNW 5.8 mph - N/A   Clear
6:53 AM 57.9 °F 51.1 °F 78% 30.26 in 10.0 mi NNW 6.9 mph - N/A   Scattered Clouds
7:53 AM 61.0 °F 50.0 °F 67% 30.27 in 10.0 mi North 8.1 mph - N/A   Partly Cloudy
8:53 AM 64.9 °F 48.9 °F 56% 30.28 in 10.0 mi North 6.9 mph - N/A   Scattered Clouds
9:53 AM 70.0 °F 51.1 °F 51% 30.30 in 10.0 mi NNW 8.1 mph - N/A   Scattered Clouds
10:53 AM 73.0 °F 53.1 °F 49% 30.29 in 10.0 mi Variable 6.9 mph - N/A   Partly Cloudy
11:53 AM 73.9 °F 55.9 °F 53% 30.27 in 10.0 mi NE 8.1 mph - N/A   Clear
12:53 PM 73.9 °F 57.9 °F 57% 30.25 in 10.0 mi NNE 9.2 mph - N/A   Scattered Clouds
1:53 PM 73.9 °F 57.0 °F 55% 30.22 in 10.0 mi ENE 6.9 mph - N/A   Partly Cloudy
2:53 PM 75.0 °F 54.0 °F 48% 30.20 in 10.0 mi SE 8.1 mph - N/A   Partly Cloudy
3:53 PM 73.9 °F 55.0 °F 52% 30.19 in 10.0 mi East 6.9 mph - N/A   Partly Cloudy
4:53 PM 73.0 °F 55.9 °F 55% 30.20 in 10.0 mi ENE 4.6 mph - N/A   Partly Cloudy
5:53 PM 71.1 °F 55.9 °F 59% 30.21 in 10.0 mi ENE 3.5 mph - N/A   Partly Cloudy
6:53 PM 70.0 °F 55.9 °F 61% 30.21 in 10.0 mi East 5.8 mph - N/A   Partly Cloudy
7:53 PM 70.0 °F 57.0 °F 63% 30.21 in 10.0 mi East 3.5 mph - N/A   Partly Cloudy
8:53 PM 66.9 °F 57.0 °F 70% 30.22 in 10.0 mi Calm Calm - N/A   Clear
9:53 PM 64.9 °F 59.0 °F 81% 30.22 in 10.0 mi Calm Calm - N/A   Mostly Cloudy
10:53 PM 64.0 °F 59.0 °F 84% 30.23 in 9.0 mi Calm Calm - N/A   Partly Cloudy
11:53 PM 64.0 °F 59.0 °F 84% 30.22 in 8.0 mi Calm Calm - N/A   Clear